Time,TemperatureF,DewpointF,PressureIn,WindDirection,WindDirectionDegrees,WindSpeedMPH,WindSpeedGustMPH,Humidity,HourlyPrecipIn,Conditions,Clouds,dailyrainin,SoftwareType,DateUTC
2013-06-02 00:01:00,57.4,50.2,29.83,NNW,338,13.5,13.8,77,0.00,,OVC,0.00,WeatherDisplay:10.37,2013-06-02 05:01:00,
2013-06-02 00:06:00,57.0,49.5,29.83,NNW,338,11.4,11.5,76,0.00,,OVC,0.00,WeatherDisplay:10.37,2013-06-02 05:06:00,
2013-06-02 00:11:00,56.7,49.5,29.83,NNW,338,7.1,8.1,77,0.00,,OVC,0.00,WeatherDisplay:10.37,2013-06-02 05:11:00,
2013-06-02 00:16:00,56.5,49.4,29.84,NNW,338,6.2,6.9,77,0.00,,OVC,0.00,WeatherDisplay:10.37,2013-06-02 05:16:00,
2013-06-02 00:21:00,56.5,49.4,29.84,NNW,338,5.9,12.7,77,0.00,,OVC,0.00,WeatherDisplay:10.37,2013-06-02 05:21:00,
2013-06-02 00:26:00,56.3,49.2,29.83,North,0,4.7,9.2,77,0.00,,OVC,0.00,WeatherDisplay:10.37,2013-06-02 05:26:00,
2013-06-02 00:31:00,55.9,48.8,29.83,North,0,10.7,10.7,77,0.00,,OVC,0.00,WeatherDisplay:10.37,2013-06-02 05:31:00,
2013-06-02 00:36:00,55.8,48.7,29.84,North,0,10.0,10.0,77,0.00,,OVC,0.00,WeatherDisplay:10.37,2013-06-02 05:36:00,
2013-06-02 00:41:00,55.8,48.7,29.84,North,0,5.2,5.8,77,0.00,,OVC,0.00,WeatherDisplay:10.37,2013-06-02 05:41:00,
2013-06-02 00:46:00,55.6,48.5,29.85,North,0,8.5,8.5,77,0.00,,OVC,0.00,WeatherDisplay:10.37,2013-06-02 05:46:00,
2013-06-02 00:51:00,55.2,48.1,29.85,NNW,338,6.7,8.1,77,0.00,,OVC,0.00,WeatherDisplay:10.37,2013-06-02 05:51:00,
2013-06-02 00:56:00,55.0,48.0,29.85,NNW,338,7.4,7.4,77,0.00,,OVC,0.00,WeatherDisplay:10.37,2013-06-02 05:56:00,
2013-06-02 01:01:00,54.7,48.0,29.85,NNW,338,11.4,15.0,78,0.00,,OVC,0.00,WeatherDisplay:10.37,2013-06-02 06:01:00,
2013-06-02 01:06:00,54.3,47.3,29.85,NNW,338,9.9,10.4,77,0.00,,OVC,0.00,WeatherDisplay:10.37,2013-06-02 06:06:00,
2013-06-02 01:11:00,54.0,46.9,29.86,NNW,338,6.9,8.1,77,0.00,,OVC,0.00,WeatherDisplay:10.37,2013-06-02 06:11:00,
2013-06-02 01:16:00,53.8,46.7,29.86,NNW,338,10.9,10.9,77,0.00,,OVC,0.00,WeatherDisplay:10.37,2013-06-02 06:16:00,
2013-06-02 01:21:00,53.6,46.2,29.86,North,0,7.6,7.6,76,0.00,,OVC,0.00,WeatherDisplay:10.37,2013-06-02 06:21:00,
2013-06-02 01:26:00,53.6,46.2,29.86,North,0,3.6,9.2,76,0.00,,OVC,0.00,WeatherDisplay:10.37,2013-06-02 06:26:00,
2013-06-02 01:32:00,53.4,46.0,29.86,North,0,6.9,8.1,76,0.00,,OVC,0.00,WeatherDisplay:10.37,2013-06-02 06:32:00,
2013-06-02 01:37:00,53.2,46.2,29.86,NNW,338,9.9,11.5,77,0.00,,OVC,0.00,WeatherDisplay:10.37,2013-06-02 06:37:00,
2013-06-02 01:42:00,53.2,46.2,29.86,NNW,338,6.4,6.9,77,0.00,,OVC,0.00,WeatherDisplay:10.37,2013-06-02 06:42:00,
2013-06-02 01:47:00,53.1,45.7,29.86,NNW,338,8.1,8.1,76,0.00,,OVC,0.00,WeatherDisplay:10.37,2013-06-02 06:47:00,
2013-06-02 01:52:00,52.9,45.5,29.86,NNW,338,7.8,8.1,76,0.00,,OVC,0.00,WeatherDisplay:10.37,2013-06-02 06:52:00,
2013-06-02 01:57:00,52.9,45.5,29.87,NNW,338,10.0,10.0,76,0.00,,OVC,0.00,WeatherDisplay:10.37,2013-06-02 06:57:00,
2013-06-02 02:02:00,52.7,45.3,29.87,NNW,338,10.7,10.7,76,0.00,,OVC,0.00,WeatherDisplay:10.37,2013-06-02 07:02:00,
2013-06-02 02:07:00,52.3,45.0,29.87,NNW,338,10.5,11.5,76,0.00,,OVC,0.00,WeatherDisplay:10.37,2013-06-02 07:07:00,
2013-06-02 02:12:00,52.2,44.8,29.87,North,0,7.6,10.4,76,0.00,,OVC,0.00,WeatherDisplay:10.37,2013-06-02 07:12:00,
2013-06-02 02:17:00,52.0,44.6,29.88,NW,315,10.9,10.9,76,0.00,,OVC,0.00,WeatherDisplay:10.37,2013-06-02 07:17:00,
2013-06-02 02:22:00,52.0,44.6,29.88,North,0,7.1,8.1,76,0.00,,OVC,0.00,WeatherDisplay:10.37,2013-06-02 07:22:00,
2013-06-02 02:27:00,51.8,44.8,29.88,NNW,338,5.9,9.2,77,0.00,,OVC,0.00,WeatherDisplay:10.37,2013-06-02 07:27:00,
2013-06-02 02:32:00,51.6,44.6,29.87,NNW,338,9.4,10.4,77,0.00,,OVC,0.00,WeatherDisplay:10.37,2013-06-02 07:32:00,
2013-06-02 02:37:00,51.4,44.5,29.88,NNW,338,6.9,8.1,77,0.00,,OVC,0.00,WeatherDisplay:10.37,2013-06-02 07:37:00,
2013-06-02 02:42:00,51.4,44.5,29.88,NNW,338,6.4,6.4,77,0.00,,OVC,0.00,WeatherDisplay:10.37,2013-06-02 07:42:00,
2013-06-02 02:47:00,51.4,44.8,29.88,NNW,338,7.1,9.2,78,0.00,,OVC,0.00,WeatherDisplay:10.37,2013-06-02 07:47:00,
2013-06-02 02:52:00,51.4,44.8,29.88,NNW,338,7.1,7.1,78,0.00,,OVC,0.00,WeatherDisplay:10.37,2013-06-02 07:52:00,
2013-06-02 02:57:00,51.3,44.6,29.88,North,0,6.9,8.1,78,0.00,,OVC,0.00,WeatherDisplay:10.37,2013-06-02 07:57:00,
2013-06-02 03:02:00,51.3,44.6,29.88,NNW,338,12.8,12.8,78,0.00,,OVC,0.00,WeatherDisplay:10.37,2013-06-02 08:02:00,
2013-06-02 03:07:00,51.1,44.5,29.88,North,0,7.6,10.4,78,0.00,,OVC,0.00,WeatherDisplay:10.37,2013-06-02 08:07:00,
2013-06-02 03:12:00,50.9,44.3,29.88,NNW,338,8.1,8.1,78,0.00,,OVC,0.00,WeatherDisplay:10.37,2013-06-02 08:12:00,
2013-06-02 03:17:00,50.7,44.1,29.88,NNW,338,7.6,8.1,78,0.00,,OVC,0.00,WeatherDisplay:10.37,2013-06-02 08:17:00,
2013-06-02 03:22:00,50.7,44.1,29.88,NNW,338,11.2,11.5,78,0.00,,OVC,0.00,WeatherDisplay:10.37,2013-06-02 08:22:00,
2013-06-02 03:27:00,50.7,44.1,29.88,NNW,338,9.4,9.4,78,0.00,,OVC,0.00,WeatherDisplay:10.37,2013-06-02 08:27:00,
2013-06-02 03:32:00,50.7,44.1,29.88,NNW,338,8.1,10.4,78,0.00,,OVC,0.00,WeatherDisplay:10.37,2013-06-02 08:32:00,
2013-06-02 03:37:00,50.5,43.9,29.88,NNW,338,11.4,11.5,78,0.00,,OVC,0.00,WeatherDisplay:10.37,2013-06-02 08:37:00,
2013-06-02 03:42:00,50.4,43.8,29.89,North,0,7.6,8.1,78,0.00,,OVC,0.00,WeatherDisplay:10.37,2013-06-02 08:42:00,
2013-06-02 03:47:00,50.2,43.6,29.89,North,0,5.9,5.9,78,0.00,,OVC,0.00,WeatherDisplay:10.37,2013-06-02 08:47:00,
2013-06-02 03:52:00,49.8,43.2,29.89,North,0,6.9,6.9,78,0.00,,OVC,0.00,WeatherDisplay:10.37,2013-06-02 08:52:00,
2013-06-02 03:57:00,49.5,42.9,29.89,North,0,7.4,7.4,78,0.00,,OVC,0.00,WeatherDisplay:10.37,2013-06-02 08:57:00,
2013-06-02 04:02:00,49.3,42.7,29.89,North,0,4.0,9.2,78,0.00,,OVC,0.00,WeatherDisplay:10.37,2013-06-02 09:02:00,
2013-06-02 04:07:00,49.1,42.5,29.90,North,0,3.8,5.8,78,0.00,,OVC,0.00,WeatherDisplay:10.37,2013-06-02 09:07:00,
2013-06-02 04:12:00,48.9,42.4,29.90,North,0,6.7,9.2,78,0.00,,OVC,0.00,WeatherDisplay:10.37,2013-06-02 09:12:00,
2013-06-02 04:17:00,48.7,42.2,29.90,NNW,338,2.9,5.8,78,0.00,,OVC,0.00,WeatherDisplay:10.37,2013-06-02 09:17:00,
2013-06-02 04:22:00,48.6,42.0,29.90,North,0,4.7,6.9,78,0.00,,OVC,0.00,WeatherDisplay:10.37,2013-06-02 09:22:00,
2013-06-02 04:27:00,48.6,42.3,29.90,NNW,338,4.5,5.8,79,0.00,,OVC,0.00,WeatherDisplay:10.37,2013-06-02 09:27:00,
2013-06-02 04:32:00,48.4,42.2,29.90,NNW,338,3.1,5.8,79,0.00,,OVC,0.00,WeatherDisplay:10.37,2013-06-02 09:32:00,
2013-06-02 04:37:00,48.2,42.0,29.90,NNW,338,5.6,5.6,79,0.00,,OVC,0.00,WeatherDisplay:10.37,2013-06-02 09:37:00,
2013-06-02 04:42:00,48.2,42.0,29.91,North,0,11.8,11.8,79,0.00,,OVC,0.00,WeatherDisplay:10.37,2013-06-02 09:42:00,
2013-06-02 04:47:00,48.0,41.8,29.91,North,0,9.2,9.2,79,0.00,,OVC,0.00,WeatherDisplay:10.37,2013-06-02 09:47:00,
2013-06-02 04:52:00,48.0,41.8,29.91,North,0,5.9,5.9,79,0.00,,OVC,0.00,WeatherDisplay:10.37,2013-06-02 09:52:00,
2013-06-02 04:57:00,47.8,41.6,29.91,NNW,338,2.6,4.6,79,0.00,,OVC,0.00,WeatherDisplay:10.37,2013-06-02 09:57:00,
2013-06-02 05:02:00,47.8,41.6,29.91,North,0,6.2,8.1,79,0.00,,OVC,0.00,WeatherDisplay:10.37,2013-06-02 10:02:00,
2013-06-02 05:07:00,47.8,41.6,29.91,NNW,338,5.9,11.5,79,0.00,,OVC,0.00,WeatherDisplay:10.37,2013-06-02 10:07:00,
2013-06-02 05:12:00,47.8,41.6,29.91,NNE,22,5.9,11.5,79,0.00,,OVC,0.00,WeatherDisplay:10.37,2013-06-02 10:12:00,
2013-06-02 05:17:00,47.7,41.5,29.92,NNW,338,4.7,4.7,79,0.00,,OVC,0.00,WeatherDisplay:10.37,2013-06-02 10:17:00,
2013-06-02 05:22:00,47.5,41.3,29.92,NNW,338,5.2,8.1,79,0.00,,OVC,0.00,WeatherDisplay:10.37,2013-06-02 10:22:00,
2013-06-02 05:27:00,47.5,41.3,29.92,NNW,338,7.6,7.6,79,0.00,,OVC,0.00,WeatherDisplay:10.37,2013-06-02 10:27:00,
2013-06-02 05:32:00,47.5,41.3,29.92,WNW,292,5.6,6.9,79,0.00,,OVC,0.00,WeatherDisplay:10.37,2013-06-02 10:32:00,
2013-06-02 05:37:00,47.5,41.3,29.93,NNW,338,4.3,6.9,79,0.00,,OVC,0.00,WeatherDisplay:10.37,2013-06-02 10:37:00,
2013-06-02 05:42:00,47.3,41.1,29.93,North,0,3.3,6.9,79,0.00,,OVC,0.00,WeatherDisplay:10.37,2013-06-02 10:42:00,
2013-06-02 05:47:00,47.3,41.1,29.93,North,0,9.9,9.9,79,0.00,,OVC,0.00,WeatherDisplay:10.37,2013-06-02 10:47:00,
2013-06-02 05:52:00,47.1,40.9,29.94,NNE,22,7.8,11.5,79,0.00,,OVC,0.00,WeatherDisplay:10.37,2013-06-02 10:52:00,
2013-06-02 05:57:00,47.1,40.9,29.94,WNW,292,3.8,8.1,79,0.00,,OVC,0.00,WeatherDisplay:10.37,2013-06-02 10:57:00,
2013-06-02 06:02:00,47.1,40.9,29.95,North,0,3.6,6.9,79,0.00,,OVC,0.00,WeatherDisplay:10.37,2013-06-02 11:02:00,
2013-06-02 06:07:00,47.1,40.9,29.95,North,0,6.9,15.0,79,0.00,,OVC,0.00,WeatherDisplay:10.37,2013-06-02 11:07:00,
2013-06-02 06:12:00,47.1,40.9,29.95,North,0,9.2,9.2,79,0.00,,OVC,0.00,WeatherDisplay:10.37,2013-06-02 11:12:00,
2013-06-02 06:17:00,47.3,41.1,29.96,North,0,2.4,6.9,79,0.00,,OVC,0.00,WeatherDisplay:10.37,2013-06-02 11:17:00,
2013-06-02 06:22:00,47.3,41.1,29.96,NW,315,4.3,4.6,79,0.00,,OVC,0.00,WeatherDisplay:10.37,2013-06-02 11:22:00,
2013-06-02 06:27:00,47.5,41.3,29.96,NNW,338,3.6,6.9,79,0.00,,OVC,0.00,WeatherDisplay:10.37,2013-06-02 11:27:00,
2013-06-02 06:32:00,47.8,41.6,29.96,North,0,4.7,4.7,79,0.00,,OVC,0.00,WeatherDisplay:10.37,2013-06-02 11:32:00,
2013-06-02 06:37:00,47.8,41.6,29.96,North,0,2.2,3.5,79,0.00,,OVC,0.00,WeatherDisplay:10.37,2013-06-02 11:37:00,
2013-06-02 06:42:00,47.8,41.6,29.97,NNE,22,9.4,10.4,79,0.00,,OVC,0.00,WeatherDisplay:10.37,2013-06-02 11:42:00,
2013-06-02 06:47:00,48.0,41.8,29.97,NW,315,10.2,10.2,79,0.00,,OVC,0.00,WeatherDisplay:10.37,2013-06-02 11:47:00,
2013-06-02 06:53:00,48.0,41.8,29.98,North,0,6.0,8.1,79,0.00,,OVC,0.00,WeatherDisplay:10.37,2013-06-02 11:53:00,
2013-06-02 06:58:00,48.2,42.0,29.98,NNE,22,9.7,9.7,79,0.00,,OVC,0.00,WeatherDisplay:10.37,2013-06-02 11:58:00,
2013-06-02 07:03:00,48.0,41.8,29.98,North,0,3.8,12.7,79,0.00,,OVC,0.00,WeatherDisplay:10.37,2013-06-02 12:03:00,
2013-06-02 07:08:00,48.2,42.0,29.98,North,0,4.7,10.4,79,0.00,,OVC,0.00,WeatherDisplay:10.37,2013-06-02 12:08:00,
2013-06-02 07:13:00,48.2,42.0,29.98,North,0,3.6,9.2,79,0.00,,OVC,0.00,WeatherDisplay:10.37,2013-06-02 12:13:00,
2013-06-02 07:18:00,48.4,42.2,29.98,North,0,6.0,9.2,79,0.00,,OVC,0.00,WeatherDisplay:10.37,2013-06-02 12:18:00,
2013-06-02 07:23:00,48.6,42.3,29.99,NNW,338,4.5,5.8,79,0.00,,OVC,0.00,WeatherDisplay:10.37,2013-06-02 12:23:00,
2013-06-02 07:28:00,48.6,42.3,29.98,North,0,14.3,15.0,79,0.00,,OVC,0.00,WeatherDisplay:10.37,2013-06-02 12:28:00,
2013-06-02 07:33:00,48.6,42.3,29.99,North,0,2.4,4.6,79,0.00,,OVC,0.00,WeatherDisplay:10.37,2013-06-02 12:33:00,
2013-06-02 07:38:00,48.7,42.5,29.99,North,0,9.9,9.9,79,0.00,,OVC,0.00,WeatherDisplay:10.37,2013-06-02 12:38:00,
2013-06-02 07:43:00,48.9,42.4,29.99,NNW,338,11.2,11.2,78,0.00,,OVC,0.00,WeatherDisplay:10.37,2013-06-02 12:43:00,
2013-06-02 07:48:00,48.9,42.7,29.99,North,0,2.9,5.8,79,0.00,,OVC,0.00,WeatherDisplay:10.37,2013-06-02 12:48:00,
2013-06-02 07:53:00,49.1,42.5,29.98,North,0,6.9,6.9,78,0.00,,OVC,0.00,WeatherDisplay:10.37,2013-06-02 12:53:00,
2013-06-02 07:58:00,49.1,42.5,29.99,North,0,11.4,20.7,78,0.00,,OVC,0.00,WeatherDisplay:10.37,2013-06-02 12:58:00,
2013-06-02 08:03:00,48.9,42.4,29.99,North,0,16.6,18.4,78,0.00,,OVC,0.00,WeatherDisplay:10.37,2013-06-02 13:03:00,
2013-06-02 08:08:00,48.6,42.0,29.99,North,0,8.5,13.8,78,0.00,,OVC,0.00,WeatherDisplay:10.37,2013-06-02 13:08:00,
2013-06-02 08:13:00,48.6,41.7,30.00,North,0,3.8,11.5,77,0.00,,OVC,0.00,WeatherDisplay:10.37,2013-06-02 13:13:00,
2013-06-02 08:18:00,48.7,41.5,30.00,NE,45,4.5,4.6,76,0.00,,OVC,0.00,WeatherDisplay:10.37,2013-06-02 13:18:00,
2013-06-02 08:23:00,48.7,41.8,29.99,North,0,6.2,9.2,77,0.00,,OVC,0.00,WeatherDisplay:10.37,2013-06-02 13:23:00,
2013-06-02 08:28:00,48.9,42.4,30.00,North,0,7.4,7.4,78,0.00,,OVC,0.00,WeatherDisplay:10.37,2013-06-02 13:28:00,
2013-06-02 08:33:00,49.1,42.5,30.00,NNW,338,4.0,5.8,78,0.00,,OVC,0.00,WeatherDisplay:10.37,2013-06-02 13:33:00,
2013-06-02 08:38:00,48.9,42.4,30.00,NNW,338,7.6,8.1,78,0.00,,OVC,0.00,WeatherDisplay:10.37,2013-06-02 13:38:00,
2013-06-02 08:43:00,49.1,42.5,30.00,NNW,338,9.9,11.5,78,0.00,,OVC,0.00,WeatherDisplay:10.37,2013-06-02 13:43:00,
2013-06-02 08:48:00,49.3,42.7,30.00,North,0,7.6,8.1,78,0.00,,OVC,0.00,WeatherDisplay:10.37,2013-06-02 13:48:00,
2013-06-02 08:53:00,48.6,42.3,30.00,NNE,22,19.2,23.0,79,0.00,,OVC,0.00,WeatherDisplay:10.37,2013-06-02 13:53:00,
2013-06-02 08:58:00,47.8,41.6,30.01,NNE,22,19.0,20.7,79,0.00,,OVC,0.00,WeatherDisplay:10.37,2013-06-02 13:58:00,
2013-06-02 09:03:00,48.0,41.5,30.01,North,0,11.4,13.8,78,0.00,,OVC,0.00,WeatherDisplay:10.37,2013-06-02 14:03:00,
2013-06-02 09:08:00,48.4,42.2,30.01,North,0,22.1,22.1,79,0.00,,OVC,0.00,WeatherDisplay:10.37,2013-06-02 14:08:00,
2013-06-02 09:13:00,48.9,42.7,30.01,North,0,9.4,18.4,79,0.00,,OVC,0.00,WeatherDisplay:10.37,2013-06-02 14:13:00,
2013-06-02 09:18:00,49.3,43.0,30.01,NNW,338,10.7,10.7,79,0.00,,OVC,0.00,WeatherDisplay:10.37,2013-06-02 14:18:00,
2013-06-02 09:23:00,49.3,42.7,30.01,North,0,7.8,8.1,78,0.00,,OVC,0.00,WeatherDisplay:10.37,2013-06-02 14:23:00,
2013-06-02 09:28:00,49.6,43.1,30.01,North,0,11.8,12.7,78,0.00,,OVC,0.00,WeatherDisplay:10.37,2013-06-02 14:28:00,
2013-06-02 09:33:00,50.2,42.6,30.01,North,0,23.9,24.2,75,0.00,,OVC,0.00,WeatherDisplay:10.37,2013-06-02 14:33:00,
2013-06-02 09:38:00,50.4,42.4,30.01,North,0,22.8,23.0,74,0.00,,OVC,0.00,WeatherDisplay:10.37,2013-06-02 14:38:00,
2013-06-02 09:43:00,50.0,42.4,30.01,North,0,11.8,20.7,75,0.00,,OVC,0.00,WeatherDisplay:10.37,2013-06-02 14:43:00,
2013-06-02 09:48:00,50.0,42.4,30.02,North,0,20.8,20.8,75,0.00,,OVC,0.00,WeatherDisplay:10.37,2013-06-02 14:48:00,
2013-06-02 09:53:00,50.0,42.7,30.02,North,0,11.4,11.5,76,0.00,,OVC,0.00,WeatherDisplay:10.37,2013-06-02 14:53:00,
2013-06-02 09:58:00,50.7,43.1,30.02,North,0,6.9,6.9,75,0.00,,OVC,0.00,WeatherDisplay:10.37,2013-06-02 14:58:00,
2013-06-02 10:03:00,51.1,43.4,30.03,NNW,338,6.4,9.2,75,0.00,,OVC,0.00,WeatherDisplay:10.37,2013-06-02 15:03:00,
2013-06-02 10:08:00,50.9,43.3,30.03,North,0,9.7,9.7,75,0.00,,OVC,0.00,WeatherDisplay:10.37,2013-06-02 15:08:00,
2013-06-02 10:13:00,50.7,43.1,30.03,NNE,22,6.4,18.4,75,0.00,,OVC,0.00,WeatherDisplay:10.37,2013-06-02 15:13:00,
2013-06-02 10:18:00,50.7,43.1,30.03,NNW,338,4.3,8.1,75,0.00,,OVC,0.00,WeatherDisplay:10.37,2013-06-02 15:18:00,
2013-06-02 10:23:00,50.7,43.4,30.03,North,0,4.5,6.9,76,0.00,,OVC,0.00,WeatherDisplay:10.37,2013-06-02 15:23:00,
2013-06-02 10:28:00,51.1,43.4,30.03,North,0,5.9,9.2,75,0.00,,OVC,0.00,WeatherDisplay:10.37,2013-06-02 15:28:00,
2013-06-02 10:33:00,51.3,43.6,30.04,NNW,338,6.4,6.9,75,0.00,,OVC,0.00,WeatherDisplay:10.37,2013-06-02 15:33:00,
2013-06-02 10:38:00,51.3,43.6,30.04,North,0,4.0,6.9,75,0.00,,OVC,0.00,WeatherDisplay:10.37,2013-06-02 15:38:00,
2013-06-02 10:43:00,51.3,43.3,30.04,North,0,9.2,9.2,74,0.00,,OVC,0.00,WeatherDisplay:10.37,2013-06-02 15:43:00,
2013-06-02 10:48:00,51.4,43.4,30.04,North,0,6.2,8.1,74,0.00,,OVC,0.00,WeatherDisplay:10.37,2013-06-02 15:48:00,
2013-06-02 10:53:00,51.8,43.8,30.03,NNE,22,12.3,15.0,74,0.00,,OVC,0.00,WeatherDisplay:10.37,2013-06-02 15:53:00,
2013-06-02 10:58:00,52.2,43.8,30.03,NNW,338,6.4,10.4,73,0.00,,OVC,0.00,WeatherDisplay:10.37,2013-06-02 15:58:00,
2013-06-02 11:03:00,52.0,43.6,30.04,North,0,15.4,15.4,73,0.00,,OVC,0.00,WeatherDisplay:10.37,2013-06-02 16:03:00,
2013-06-02 11:08:00,51.8,43.8,30.04,NNW,338,7.6,7.6,74,0.00,,OVC,0.00,WeatherDisplay:10.37,2013-06-02 16:08:00,
2013-06-02 11:13:00,51.8,43.8,30.04,NNW,338,6.0,6.0,74,0.00,,OVC,0.00,WeatherDisplay:10.37,2013-06-02 16:13:00,
2013-06-02 11:18:00,52.0,43.9,30.04,North,0,4.7,5.8,74,0.00,,OVC,0.00,WeatherDisplay:10.37,2013-06-02 16:18:00,
2013-06-02 11:23:00,52.2,44.1,30.04,NNW,338,5.2,5.2,74,0.00,,OVC,0.00,WeatherDisplay:10.37,2013-06-02 16:23:00,
2013-06-02 11:28:00,52.5,44.5,30.03,North,0,4.5,6.9,74,0.00,,OVC,0.00,WeatherDisplay:10.37,2013-06-02 16:28:00,
2013-06-02 11:33:00,52.9,44.5,30.04,North,0,9.7,11.5,73,0.00,,OVC,0.00,WeatherDisplay:10.37,2013-06-02 16:33:00,
2013-06-02 11:38:00,52.9,44.8,30.04,NNW,338,4.9,5.8,74,0.00,,OVC,0.00,WeatherDisplay:10.37,2013-06-02 16:38:00,
2013-06-02 11:43:00,52.9,44.5,30.03,NNW,338,4.9,4.9,73,0.00,,OVC,0.00,WeatherDisplay:10.37,2013-06-02 16:43:00,
2013-06-02 11:48:00,52.9,44.5,30.03,North,0,8.7,10.4,73,0.00,,OVC,0.00,WeatherDisplay:10.37,2013-06-02 16:48:00,
2013-06-02 11:53:00,52.9,44.8,30.04,NNW,338,4.7,4.7,74,0.00,,OVC,0.00,WeatherDisplay:10.37,2013-06-02 16:53:00,
2013-06-02 11:58:00,53.1,45.0,30.04,NNW,338,4.0,5.8,74,0.00,,OVC,0.00,WeatherDisplay:10.37,2013-06-02 16:58:00,
2013-06-02 12:03:00,53.4,45.7,30.04,North,0,4.7,4.7,75,0.00,,OVC,0.00,WeatherDisplay:10.37,2013-06-02 17:03:00,
2013-06-02 12:08:00,53.4,45.3,30.04,NNW,338,6.9,6.9,74,0.00,,OVC,0.00,WeatherDisplay:10.37,2013-06-02 17:08:00,
2013-06-02 12:13:00,53.1,44.6,30.04,North,0,4.5,8.1,73,0.00,,OVC,0.00,WeatherDisplay:10.37,2013-06-02 17:13:00,
2013-06-02 12:18:00,53.6,45.5,30.04,North,0,6.2,8.1,74,0.00,,OVC,0.00,WeatherDisplay:10.37,2013-06-02 17:18:00,
2013-06-02 12:23:00,54.1,45.7,30.03,North,0,9.2,9.2,73,0.00,,OVC,0.00,WeatherDisplay:10.37,2013-06-02 17:23:00,
2013-06-02 12:28:00,54.3,45.8,30.03,North,0,4.0,8.1,73,0.00,,OVC,0.00,WeatherDisplay:10.37,2013-06-02 17:28:00,
2013-06-02 12:33:00,54.3,45.5,30.03,North,0,7.4,7.4,72,0.00,,OVC,0.00,WeatherDisplay:10.37,2013-06-02 17:33:00,
2013-06-02 12:39:00,54.5,45.3,30.03,North,0,21.0,21.0,71,0.00,,OVC,0.00,WeatherDisplay:10.37,2013-06-02 17:39:00,
2013-06-02 12:44:00,54.7,45.8,30.02,NNW,338,4.3,8.1,72,0.00,,OVC,0.00,WeatherDisplay:10.37,2013-06-02 17:44:00,
2013-06-02 12:49:00,55.2,46.0,30.02,North,0,4.0,21.9,71,0.00,,OVC,0.00,WeatherDisplay:10.37,2013-06-02 17:49:00,
2013-06-02 12:54:00,55.8,45.7,30.03,North,0,13.5,13.5,69,0.00,,OVC,0.00,WeatherDisplay:10.37,2013-06-02 17:54:00,
2013-06-02 12:59:00,55.9,46.3,30.03,NNW,338,4.3,5.8,70,0.00,,OVC,0.00,WeatherDisplay:10.37,2013-06-02 17:59:00,
2013-06-02 13:04:00,55.9,46.3,30.03,North,0,2.2,5.8,70,0.00,,OVC,0.00,WeatherDisplay:10.37,2013-06-02 18:04:00,
2013-06-02 13:09:00,56.1,46.1,30.03,NNW,338,6.0,6.0,69,0.00,,OVC,0.00,WeatherDisplay:10.37,2013-06-02 18:09:00,
2013-06-02 13:14:00,56.5,46.4,30.02,NNW,338,3.8,5.8,69,0.00,,OVC,0.00,WeatherDisplay:10.37,2013-06-02 18:14:00,
2013-06-02 13:19:00,56.5,46.4,30.02,NNW,338,3.3,4.6,69,0.00,,OVC,0.00,WeatherDisplay:10.37,2013-06-02 18:19:00,
2013-06-02 13:24:00,56.5,46.4,30.03,North,0,15.6,16.1,69,0.00,,OVC,0.00,WeatherDisplay:10.37,2013-06-02 18:24:00,
2013-06-02 13:29:00,56.8,46.4,30.02,North,0,5.9,5.9,68,0.00,,OVC,0.00,WeatherDisplay:10.37,2013-06-02 18:29:00,
2013-06-02 13:34:00,56.8,45.6,30.02,NE,45,7.4,9.2,66,0.00,,OVC,0.00,WeatherDisplay:10.37,2013-06-02 18:34:00,
2013-06-02 13:39:00,56.8,46.4,30.02,NNW,338,5.9,6.9,68,0.00,,OVC,0.00,WeatherDisplay:10.37,2013-06-02 18:39:00,
2013-06-02 13:44:00,57.2,46.3,30.02,North,0,3.3,4.6,67,0.00,,OVC,0.00,WeatherDisplay:10.37,2013-06-02 18:44:00,
2013-06-02 13:49:00,57.9,47.4,30.02,NNW,338,5.9,5.9,68,0.00,,OVC,0.00,WeatherDisplay:10.37,2013-06-02 18:49:00,
2013-06-02 13:54:00,57.9,46.2,30.02,North,0,10.2,10.2,65,0.00,,OVC,0.00,WeatherDisplay:10.37,2013-06-02 18:54:00,
2013-06-02 13:59:00,57.7,46.0,30.02,NNW,338,4.0,4.6,65,0.00,,OVC,0.00,WeatherDisplay:10.37,2013-06-02 18:59:00,
2013-06-02 14:04:00,57.9,45.8,30.01,ENE,68,6.2,16.1,64,0.00,,OVC,0.00,WeatherDisplay:10.37,2013-06-02 19:04:00,
2013-06-02 14:09:00,57.9,45.0,30.01,NNE,22,15.0,15.0,62,0.00,,OVC,0.00,WeatherDisplay:10.37,2013-06-02 19:09:00,
2013-06-02 14:14:00,58.3,46.6,30.01,North,0,3.3,8.1,65,0.00,,OVC,0.00,WeatherDisplay:10.37,2013-06-02 19:14:00,
2013-06-02 14:19:00,58.6,47.3,30.01,North,0,2.4,8.1,66,0.00,,OVC,0.00,WeatherDisplay:10.37,2013-06-02 19:19:00,
2013-06-02 14:24:00,58.6,46.1,30.02,NNE,22,4.5,5.8,63,0.00,,OVC,0.00,WeatherDisplay:10.37,2013-06-02 19:24:00,
2013-06-02 14:29:00,58.8,46.2,30.01,NW,315,6.0,9.2,63,0.00,,OVC,0.00,WeatherDisplay:10.37,2013-06-02 19:29:00,
2013-06-02 14:34:00,58.8,46.7,30.02,North,0,3.8,9.2,64,0.00,,OVC,0.00,WeatherDisplay:10.37,2013-06-02 19:34:00,
2013-06-02 14:39:00,59.0,46.4,30.02,WNW,292,4.0,4.6,63,0.00,,OVC,0.00,WeatherDisplay:10.37,2013-06-02 19:39:00,
2013-06-02 14:44:00,59.4,46.3,30.02,North,0,17.5,17.5,62,0.00,,OVC,0.00,WeatherDisplay:10.37,2013-06-02 19:44:00,
2013-06-02 14:49:00,59.2,46.6,30.02,North,0,6.0,6.0,63,0.00,,OVC,0.00,WeatherDisplay:10.37,2013-06-02 19:49:00,
2013-06-02 14:54:00,59.5,46.5,30.02,North,0,17.0,18.4,62,0.00,,OVC,0.00,WeatherDisplay:10.37,2013-06-02 19:54:00,
2013-06-02 14:59:00,59.9,46.8,30.01,NNE,22,13.9,13.9,62,0.00,,OVC,0.00,WeatherDisplay:10.37,2013-06-02 19:59:00,
2013-06-02 15:04:00,59.7,47.1,30.01,North,0,8.3,8.3,63,0.00,,OVC,0.00,WeatherDisplay:10.37,2013-06-02 20:04:00,
2013-06-02 15:09:00,59.9,46.4,30.02,North,0,8.5,8.5,61,0.00,,OVC,0.00,WeatherDisplay:10.37,2013-06-02 20:09:00,
2013-06-02 15:14:00,60.1,47.0,30.01,NNW,338,6.9,6.9,62,0.00,,OVC,0.00,WeatherDisplay:10.37,2013-06-02 20:14:00,
2013-06-02 15:19:00,60.1,46.6,30.02,NNW,338,3.3,3.5,61,0.00,,OVC,0.00,WeatherDisplay:10.37,2013-06-02 20:19:00,
2013-06-02 15:24:00,60.4,47.4,30.02,NNW,338,4.9,4.9,62,0.00,,OVC,0.00,WeatherDisplay:10.37,2013-06-02 20:24:00,
2013-06-02 15:29:00,60.6,46.7,30.02,NNW,338,3.3,4.6,60,0.00,,OVC,0.00,WeatherDisplay:10.37,2013-06-02 20:29:00,
2013-06-02 15:34:00,60.4,46.0,30.02,North,0,3.3,3.5,59,0.00,,OVC,0.00,WeatherDisplay:10.37,2013-06-02 20:34:00,
2013-06-02 15:39:00,60.4,46.0,30.02,NNW,338,6.7,6.7,59,0.00,,OVC,0.00,WeatherDisplay:10.37,2013-06-02 20:39:00,
2013-06-02 15:44:00,60.4,46.5,30.02,North,0,2.4,3.5,60,0.00,,OVC,0.00,WeatherDisplay:10.37,2013-06-02 20:44:00,
2013-06-02 15:49:00,60.4,46.9,30.02,North,0,3.8,8.1,61,0.00,,OVC,0.00,WeatherDisplay:10.37,2013-06-02 20:49:00,
2013-06-02 15:54:00,60.6,45.3,30.02,NE,45,12.5,15.0,57,0.00,,OVC,0.00,WeatherDisplay:10.37,2013-06-02 20:54:00,
2013-06-02 15:59:00,60.4,46.0,30.01,North,0,2.0,4.6,59,0.00,,OVC,0.00,WeatherDisplay:10.37,2013-06-02 20:59:00,
2013-06-02 16:04:00,60.6,46.2,30.01,NNW,338,1.8,3.5,59,0.00,,OVC,0.00,WeatherDisplay:10.37,2013-06-02 21:04:00,
2013-06-02 16:09:00,60.4,46.0,30.01,NW,315,7.4,7.4,59,0.00,,OVC,0.00,WeatherDisplay:10.37,2013-06-02 21:09:00,
2013-06-02 16:14:00,60.6,46.2,30.01,North,0,8.1,8.1,59,0.00,,OVC,0.00,WeatherDisplay:10.37,2013-06-02 21:14:00,
2013-06-02 16:19:00,60.8,45.9,30.01,NNW,338,5.9,5.9,58,0.00,,OVC,0.00,WeatherDisplay:10.37,2013-06-02 21:19:00,
2013-06-02 16:24:00,61.2,46.7,30.01,WNW,292,2.6,2.6,59,0.00,,OVC,0.00,WeatherDisplay:10.37,2013-06-02 21:24:00,
2013-06-02 16:29:00,61.2,46.3,30.01,North,0,9.2,9.2,58,0.00,,OVC,0.00,WeatherDisplay:10.37,2013-06-02 21:29:00,
2013-06-02 16:34:00,61.0,45.6,30.01,North,0,3.3,8.1,57,0.00,,OVC,0.00,WeatherDisplay:10.37,2013-06-02 21:34:00,
2013-06-02 16:39:00,61.0,45.2,30.01,NNW,338,4.0,4.6,56,0.00,,OVC,0.00,WeatherDisplay:10.37,2013-06-02 21:39:00,
2013-06-02 16:44:00,60.8,45.5,30.01,NW,315,5.4,5.4,57,0.00,,OVC,0.00,WeatherDisplay:10.37,2013-06-02 21:44:00,
2013-06-02 16:49:00,60.8,45.9,30.01,North,0,4.7,5.8,58,0.00,,OVC,0.00,WeatherDisplay:10.37,2013-06-02 21:49:00,
2013-06-02 16:54:00,60.8,45.5,30.01,NW,315,3.3,3.5,57,0.00,,OVC,0.00,WeatherDisplay:10.37,2013-06-02 21:54:00,
2013-06-02 16:59:00,61.0,46.1,30.01,NNW,338,1.8,5.8,58,0.00,,OVC,0.00,WeatherDisplay:10.37,2013-06-02 21:59:00,
2013-06-02 17:04:00,61.0,46.1,30.01,NNW,338,2.4,2.4,58,0.00,,OVC,0.00,WeatherDisplay:10.37,2013-06-02 22:04:00,
2013-06-02 17:09:00,60.8,45.9,30.01,NNW,338,2.4,10.4,58,0.00,,OVC,0.00,WeatherDisplay:10.37,2013-06-02 22:09:00,
2013-06-02 17:14:00,61.0,45.6,30.01,North,0,8.5,12.7,57,0.00,,OVC,0.00,WeatherDisplay:10.37,2013-06-02 22:14:00,
2013-06-02 17:19:00,60.8,45.9,30.01,North,0,3.3,5.8,58,0.00,,OVC,0.00,WeatherDisplay:10.37,2013-06-02 22:19:00,
2013-06-02 17:24:00,61.2,46.3,30.01,NNW,338,1.8,10.4,58,0.00,,OVC,0.00,WeatherDisplay:10.37,2013-06-02 22:24:00,
2013-06-02 17:29:00,61.2,46.3,30.01,NNW,338,2.2,3.5,58,0.00,,OVC,0.00,WeatherDisplay:10.37,2013-06-02 22:29:00,
2013-06-02 17:34:00,61.2,45.8,30.01,NNW,338,1.2,5.8,57,0.00,,OVC,0.00,WeatherDisplay:10.37,2013-06-02 22:34:00,
2013-06-02 17:39:00,61.2,45.3,30.01,NNW,338,2.2,9.2,56,0.00,,OVC,0.00,WeatherDisplay:10.37,2013-06-02 22:39:00,
2013-06-02 17:44:00,61.2,46.3,30.01,North,0,1.6,3.5,58,0.00,,OVC,0.00,WeatherDisplay:10.37,2013-06-02 22:44:00,
2013-06-02 17:49:00,61.2,45.3,30.01,North,0,4.3,11.5,56,0.00,,OVC,0.00,WeatherDisplay:10.37,2013-06-02 22:49:00,
2013-06-02 17:54:00,61.2,45.8,30.01,North,0,2.4,8.1,57,0.00,,OVC,0.00,WeatherDisplay:10.37,2013-06-02 22:54:00,
2013-06-02 18:00:00,60.8,45.5,30.00,North,0,6.2,6.2,57,0.00,,OVC,0.00,WeatherDisplay:10.37,2013-06-02 23:00:00,
2013-06-02 18:05:00,60.8,45.9,30.00,NNW,338,2.9,11.5,58,0.00,,OVC,0.00,WeatherDisplay:10.37,2013-06-02 23:05:00,
2013-06-02 18:10:00,61.0,45.6,30.00,NNW,338,2.9,2.9,57,0.00,,OVC,0.00,WeatherDisplay:10.37,2013-06-02 23:10:00,
2013-06-02 18:15:00,61.2,45.8,30.00,North,0,11.4,11.4,57,0.00,,OVC,0.00,WeatherDisplay:10.37,2013-06-02 23:15:00,
2013-06-02 18:20:00,61.2,45.8,30.00,NNW,338,3.1,3.5,57,0.00,,OVC,0.00,WeatherDisplay:10.37,2013-06-02 23:20:00,
2013-06-02 18:25:00,61.5,47.1,30.00,North,0,5.9,9.2,59,0.00,,OVC,0.00,WeatherDisplay:10.37,2013-06-02 23:25:00,
2013-06-02 18:30:00,61.3,45.5,30.00,North,0,8.7,8.7,56,0.00,,OVC,0.00,WeatherDisplay:10.37,2013-06-02 23:30:00,
2013-06-02 18:35:00,61.3,44.5,30.00,North,0,10.5,15.0,54,0.00,,OVC,0.00,WeatherDisplay:10.37,2013-06-02 23:35:00,
2013-06-02 18:40:00,61.3,45.5,30.00,North,0,3.3,4.6,56,0.00,,OVC,0.00,WeatherDisplay:10.37,2013-06-02 23:40:00,
2013-06-02 18:45:00,61.3,45.5,30.00,North,0,9.4,9.4,56,0.00,,OVC,0.00,WeatherDisplay:10.37,2013-06-02 23:45:00,
2013-06-02 18:50:00,61.3,46.0,30.00,North,0,6.2,10.4,57,0.00,,OVC,0.00,WeatherDisplay:10.37,2013-06-02 23:50:00,
2013-06-02 18:55:00,61.3,46.0,30.00,North,0,2.4,5.8,57,0.00,,OVC,0.00,WeatherDisplay:10.37,2013-06-02 23:55:00,
2013-06-02 19:00:00,61.3,46.0,30.00,North,0,4.9,4.9,57,0.00,,OVC,0.00,WeatherDisplay:10.37,2013-06-03 00:00:00,
2013-06-02 19:05:00,61.2,45.8,30.01,North,0,5.6,5.8,57,0.00,,OVC,0.00,WeatherDisplay:10.37,2013-06-03 00:05:00,
2013-06-02 19:10:00,60.8,45.5,30.01,North,0,2.4,5.8,57,0.00,,OVC,0.00,WeatherDisplay:10.37,2013-06-03 00:10:00,
2013-06-02 19:15:00,60.8,45.5,30.00,North,0,4.0,4.0,57,0.00,,OVC,0.00,WeatherDisplay:10.37,2013-06-03 00:15:00,
2013-06-02 19:20:00,60.6,44.8,30.01,NNE,22,6.9,9.2,56,0.00,,OVC,0.00,WeatherDisplay:10.37,2013-06-03 00:20:00,
2013-06-02 19:25:00,60.8,45.5,30.00,NNE,22,4.9,8.1,57,0.00,,OVC,0.00,WeatherDisplay:10.37,2013-06-03 00:25:00,
2013-06-02 19:30:00,60.8,45.0,30.00,NNE,22,2.6,3.5,56,0.00,,OVC,0.00,WeatherDisplay:10.37,2013-06-03 00:30:00,
2013-06-02 19:35:00,60.8,45.5,30.00,North,0,7.6,7.6,57,0.00,,OVC,0.00,WeatherDisplay:10.37,2013-06-03 00:35:00,
2013-06-02 19:40:00,60.6,44.8,30.00,NE,45,7.6,9.2,56,0.00,,OVC,0.00,WeatherDisplay:10.37,2013-06-03 00:40:00,
2013-06-02 19:45:00,60.6,44.4,30.00,North,0,6.4,8.1,55,0.00,,OVC,0.00,WeatherDisplay:10.37,2013-06-03 00:45:00,
2013-06-02 19:50:00,60.6,45.3,30.00,North,0,11.4,11.4,57,0.00,,OVC,0.00,WeatherDisplay:10.37,2013-06-03 00:50:00,
2013-06-02 19:55:00,60.4,44.7,30.00,North,0,8.5,8.5,56,0.00,,OVC,0.00,WeatherDisplay:10.37,2013-06-03 00:55:00,
2013-06-02 20:00:00,60.1,44.8,30.00,NNE,22,4.3,5.8,57,0.00,,OVC,0.00,WeatherDisplay:10.37,2013-06-03 01:00:00,
2013-06-02 20:05:00,60.1,45.2,30.00,NNE,22,2.6,3.5,58,0.00,,OVC,0.00,WeatherDisplay:10.37,2013-06-03 01:05:00,
2013-06-02 20:10:00,59.9,45.1,30.00,North,0,3.3,3.5,58,0.00,,OVC,0.00,WeatherDisplay:10.37,2013-06-03 01:10:00,
2013-06-02 20:15:00,59.7,45.8,30.00,NNE,22,2.0,3.5,60,0.00,,OVC,0.00,WeatherDisplay:10.37,2013-06-03 01:15:00,
2013-06-02 20:20:00,59.5,45.2,30.00,NNE,22,1.6,2.3,59,0.00,,OVC,0.00,WeatherDisplay:10.37,2013-06-03 01:20:00,
2013-06-02 20:25:00,59.4,45.0,30.00,NNE,22,0.7,1.2,59,0.00,,OVC,0.00,WeatherDisplay:10.37,2013-06-03 01:25:00,
2013-06-02 20:30:00,59.0,45.1,30.00,NE,45,0.7,1.2,60,0.00,,OVC,0.00,WeatherDisplay:10.37,2013-06-03 01:30:00,
2013-06-02 20:35:00,58.6,45.2,30.00,NE,45,1.2,1.2,61,0.00,,OVC,0.00,WeatherDisplay:10.37,2013-06-03 01:35:00,
2013-06-02 20:40:00,58.1,44.7,30.00,NE,45,0.7,1.2,61,0.00,,OVC,0.00,WeatherDisplay:10.37,2013-06-03 01:40:00,
2013-06-02 20:45:00,57.9,45.0,30.00,NNE,22,1.8,2.3,62,0.00,,OVC,0.00,WeatherDisplay:10.37,2013-06-03 01:45:00,
2013-06-02 20:50:00,57.6,44.6,30.00,NNE,22,1.4,2.3,62,0.00,,OVC,0.00,WeatherDisplay:10.37,2013-06-03 01:50:00,
2013-06-02 20:55:00,57.4,44.5,30.00,NNE,22,0.5,1.2,62,0.00,,OVC,0.00,WeatherDisplay:10.37,2013-06-03 01:55:00,
2013-06-02 21:00:00,57.2,45.1,30.00,NNE,22,0.7,1.2,64,0.00,,OVC,0.00,WeatherDisplay:10.37,2013-06-03 02:00:00,
2013-06-02 21:05:00,56.8,44.8,30.00,NNE,22,0.5,1.2,64,0.00,,OVC,0.00,WeatherDisplay:10.37,2013-06-03 02:05:00,
2013-06-02 21:10:00,56.8,44.8,30.01,NNE,22,1.2,1.2,64,0.00,,OVC,0.00,WeatherDisplay:10.37,2013-06-03 02:10:00,
2013-06-02 21:15:00,56.5,44.9,30.01,NNE,22,1.8,2.3,65,0.00,,OVC,0.00,WeatherDisplay:10.37,2013-06-03 02:15:00,
2013-06-02 21:20:00,56.1,44.9,30.01,NE,45,1.4,1.4,66,0.00,,OVC,0.00,WeatherDisplay:10.37,2013-06-03 02:20:00,
2013-06-02 21:25:00,55.9,44.7,30.01,ENE,68,1.8,2.3,66,0.00,,OVC,0.00,WeatherDisplay:10.37,2013-06-03 02:25:00,
2013-06-02 21:30:00,55.6,44.4,30.01,ENE,68,1.8,2.3,66,0.00,,OVC,0.00,WeatherDisplay:10.37,2013-06-03 02:30:00,
2013-06-02 21:35:00,55.4,44.6,30.01,ENE,68,2.9,3.5,67,0.00,,OVC,0.00,WeatherDisplay:10.37,2013-06-03 02:35:00,
2013-06-02 21:40:00,55.0,44.3,30.01,East,90,2.6,2.6,67,0.00,,OVC,0.00,WeatherDisplay:10.37,2013-06-03 02:40:00,
2013-06-02 21:45:00,54.9,44.5,30.01,East,90,1.8,2.3,68,0.00,,OVC,0.00,WeatherDisplay:10.37,2013-06-03 02:45:00,
2013-06-02 21:50:00,54.7,44.3,30.01,East,90,1.2,2.3,68,0.00,,OVC,0.00,WeatherDisplay:10.37,2013-06-03 02:50:00,
2013-06-02 21:55:00,54.7,44.7,30.01,East,90,1.4,1.4,69,0.00,,OVC,0.00,WeatherDisplay:10.37,2013-06-03 02:55:00,
2013-06-02 22:00:00,54.3,44.4,30.01,ENE,68,2.4,2.4,69,0.00,,OVC,0.00,WeatherDisplay:10.37,2013-06-03 03:00:00,
2013-06-02 22:05:00,54.3,44.4,30.01,ENE,68,1.2,1.2,69,0.00,,OVC,0.00,WeatherDisplay:10.37,2013-06-03 03:05:00,
2013-06-02 22:10:00,54.1,44.6,30.01,ENE,68,1.6,2.3,70,0.00,,OVC,0.00,WeatherDisplay:10.37,2013-06-03 03:10:00,
2013-06-02 22:15:00,53.8,44.2,30.01,ENE,68,2.4,2.4,70,0.00,,OVC,0.00,WeatherDisplay:10.37,2013-06-03 03:15:00,
2013-06-02 22:20:00,53.6,44.4,30.01,ENE,68,1.8,1.8,71,0.00,,OVC,0.00,WeatherDisplay:10.37,2013-06-03 03:20:00,
2013-06-02 22:25:00,53.6,44.8,30.02,ENE,68,1.8,2.3,72,0.00,,OVC,0.00,WeatherDisplay:10.37,2013-06-03 03:25:00,
2013-06-02 22:30:00,53.6,44.4,30.02,ENE,68,1.8,2.3,71,0.00,,OVC,0.00,WeatherDisplay:10.37,2013-06-03 03:30:00,
2013-06-02 22:35:00,53.6,44.4,30.02,ENE,68,4.0,4.0,71,0.00,,OVC,0.00,WeatherDisplay:10.37,2013-06-03 03:35:00,
2013-06-02 22:40:00,53.4,44.2,30.01,East,90,2.9,4.6,71,0.00,,OVC,0.00,WeatherDisplay:10.37,2013-06-03 03:40:00,
2013-06-02 22:45:00,53.4,44.2,30.02,East,90,3.1,3.5,71,0.00,,OVC,0.00,WeatherDisplay:10.37,2013-06-03 03:45:00,
2013-06-02 22:50:00,53.1,44.3,30.02,East,90,4.0,4.0,72,0.00,,OVC,0.00,WeatherDisplay:10.37,2013-06-03 03:50:00,
2013-06-02 22:55:00,52.9,43.7,30.02,East,90,4.7,4.7,71,0.00,,OVC,0.00,WeatherDisplay:10.37,2013-06-03 03:55:00,
2013-06-02 23:00:00,52.7,43.6,30.02,East,90,2.4,3.5,71,0.00,,OVC,0.00,WeatherDisplay:10.37,2013-06-03 04:00:00,
2013-06-02 23:01:00,52.7,43.6,30.02,East,90,2.4,3.5,71,0.00,,OVC,0.00,WeatherDisplay:10.37,2013-06-03 04:01:00,
2013-06-02 23:06:00,52.5,43.8,30.02,East,90,2.6,4.6,72,0.00,,OVC,0.00,WeatherDisplay:10.37,2013-06-03 04:06:00,
2013-06-02 23:12:00,52.5,43.8,30.02,East,90,3.3,3.5,72,0.00,,OVC,0.00,WeatherDisplay:10.37,2013-06-03 04:12:00,
2013-06-02 23:17:00,52.3,43.6,30.02,East,90,2.9,3.5,72,0.00,,OVC,0.00,WeatherDisplay:10.37,2013-06-03 04:17:00,
2013-06-02 23:22:00,52.3,43.6,30.02,East,90,3.1,3.5,72,0.00,,OVC,0.00,WeatherDisplay:10.37,2013-06-03 04:22:00,
2013-06-02 23:27:00,52.2,43.4,30.02,East,90,0.9,3.5,72,0.00,,OVC,0.00,WeatherDisplay:10.37,2013-06-03 04:27:00,
2013-06-02 23:32:00,52.2,43.4,30.02,East,90,1.6,3.5,72,0.00,,OVC,0.00,WeatherDisplay:10.37,2013-06-03 04:32:00,
2013-06-02 23:37:00,52.2,43.4,30.02,East,90,1.6,2.3,72,0.00,,OVC,0.00,WeatherDisplay:10.37,2013-06-03 04:37:00,
2013-06-02 23:42:00,52.2,43.4,30.02,East,90,1.6,2.3,72,0.00,,OVC,0.00,WeatherDisplay:10.37,2013-06-03 04:42:00,
2013-06-02 23:47:00,52.0,43.2,30.02,East,90,0.7,1.2,72,0.00,,OVC,0.00,WeatherDisplay:10.37,2013-06-03 04:47:00,
2013-06-02 23:52:00,51.8,43.1,30.02,East,90,0.9,1.2,72,0.00,,OVC,0.00,WeatherDisplay:10.37,2013-06-03 04:52:00,
2013-06-02 23:57:00,51.8,43.1,30.02,East,90,1.4,1.4,72,0.00,,OVC,0.00,WeatherDisplay:10.37,2013-06-03 04:57:00,